Andrews, TX

5:13 AM CST on December 06, 2019 (GMT -0600)
Andrews

Weather History for KE11 - October, 2019

Change the Weather History Date:

Sunday, October 13, 2019

  Actual Average (KMAF) Record (KMAF)
Temperature  
Mean Temperature 65 °F -  
Max Temperature 84 °F 76 °F 94 °F (1968)
Min Temperature 46 °F 51 °F 34 °F (1969)
Growing Degree Days 15 (Base 50)    
Moisture  
Dew Point 36 °F    
Average Humidity 36    
Maximum Humidity 57    
Minimum Humidity 16    
Precipitation  
Precipitation 0.00 in - - ()
Sea Level Pressure  
Sea Level Pressure 30.00 in    
Wind  
Wind Speed 6 mph ()    
Max Wind Speed 9 mph    
Max Gust Speed 17 mph    
Visibility 10.0 miles    
Events      
Averages and records for this station are not official NWS values.
T = Trace of Precipitation, MM = Missing Value Source: Averaged Metar Reports

Daily Weather History Graph

Daily Weather History Graph

Search for Another Location

Airport or City:

Astronomy

Oct. 13, 2019 Rise Set
Actual Time 7:52 AM CDT 7:19 PM CDT
Civil Twilight 7:27 AM CDT 7:44 PM CDT
Nautical Twilight 6:59 AM CDT 8:13 PM CDT
Astronomical Twilight 6:30 AM CDT 8:41 PM CDT
Moon 7:40 PM CDT (10/13) 7:33 AM CDT (10/13)
Length of Visible Light 12h 17m
Length of Day
11h 27m
Full, 100% of the Moon is Illuminated
Oct 13
Full
Oct 13
Full
Oct 21
Last Quarter
Oct 27
New
Nov 4
First Quarter

Hourly Weather History & Observations

Time (CDT) Temp. Windchill Dew Point Humidity Pressure Visibility Wind Dir Wind Speed Gust Speed Precip Events Conditions
12:15 AM 51.1 °F - 29.8 °F 44% 30.03 in 10.0 mi South 6.9 mph - N/A   Clear
12:35 AM 50.2 °F - 29.8 °F 46% 30.03 in 10.0 mi South 3.5 mph - N/A   Clear
12:55 AM 49.8 °F - 30.0 °F 47% 30.02 in 10.0 mi South 5.8 mph - N/A   Clear
1:15 AM 50.4 °F - 29.3 °F 44% 30.01 in 10.0 mi SSW 6.9 mph - N/A   Clear
1:55 AM 50.5 °F - 28.6 °F 43% 30.01 in 10.0 mi South 8.1 mph - N/A   Clear
2:15 AM 50.9 °F - 28.2 °F 42% 30.00 in 10.0 mi SSW 6.9 mph - N/A   Clear
2:35 AM 49.8 °F - 28.4 °F 44% 30.00 in 10.0 mi SSW 6.9 mph - N/A   Clear
2:55 AM 48.6 °F - 28.9 °F 47% 30.00 in 10.0 mi SW 6.9 mph - N/A   Clear
3:15 AM 48.4 °F - 29.3 °F 48% 30.00 in 10.0 mi SW 6.9 mph - N/A   Clear
3:35 AM 48.7 °F - 29.3 °F 47% 30.00 in 10.0 mi SW 4.6 mph - N/A   Clear
3:55 AM 48.6 °F - 29.1 °F 47% 29.99 in 10.0 mi SW 6.9 mph - N/A   Clear
4:15 AM 48.4 °F - 29.3 °F 48% 29.99 in 10.0 mi SW 5.8 mph - N/A   Clear
4:35 AM 48.9 °F - 29.3 °F 47% 29.99 in 10.0 mi SW 6.9 mph - N/A   Clear
4:50 AM 48.4 °F - 29.3 °F 48% 29.99 in 10.0 mi SW 6.9 mph - N/A   Clear
5:15 AM 48.2 °F - 29.8 °F 49% 29.98 in 10.0 mi WSW 5.8 mph - N/A   Clear
5:35 AM 48.0 °F - 30.2 °F 50% 29.99 in 10.0 mi WSW 4.6 mph - N/A   Clear
5:55 AM 47.3 °F - 30.9 °F 53% 29.99 in 10.0 mi WSW 4.6 mph - N/A   Clear
6:15 AM 47.5 °F - 31.1 °F 53% 29.99 in 10.0 mi WSW 5.8 mph - N/A   Clear
6:35 AM 49.1 °F - 31.3 °F 50% 29.99 in 10.0 mi WSW 5.8 mph - N/A   Clear
6:55 AM 48.7 °F - 31.5 °F 51% 29.99 in 10.0 mi WSW 3.5 mph - N/A   Clear
7:15 AM 47.3 °F - 32.0 °F 55% 29.99 in 10.0 mi WSW 3.5 mph - N/A   Clear
7:35 AM 46.6 °F - 31.8 °F 56% 29.99 in 10.0 mi West 4.6 mph - N/A   Clear
7:55 AM 46.4 °F 45.2 °F 32.0 °F 57% 30.00 in 10.0 mi West 3.5 mph - N/A   Clear
8:15 AM 48.2 °F - 32.4 °F 54% 30.00 in 10.0 mi WSW 6.9 mph - N/A   Clear
8:35 AM 50.4 °F - 33.1 °F 52% 30.01 in 10.0 mi WSW 8.1 mph - N/A   Clear
8:55 AM 53.6 °F - 34.5 °F 48% 30.01 in 10.0 mi West 9.2 mph - N/A   Clear
9:15 AM 57.4 °F - 36.0 °F 45% 30.02 in 10.0 mi West 8.1 mph - N/A   Clear
9:35 AM 60.4 °F - 37.0 °F 42% 30.03 in 10.0 mi West 6.9 mph - N/A   Clear
9:55 AM 62.8 °F - 37.8 °F 40% 30.04 in 10.0 mi West 5.8 mph - N/A   Clear
10:15 AM 65.1 °F - 38.5 °F 37% 30.05 in 10.0 mi West 4.6 mph - N/A   Clear
10:35 AM 66.6 °F - 39.4 °F 37% 30.05 in 10.0 mi WSW 3.5 mph - N/A   Clear
10:55 AM 69.4 °F - 39.7 °F 34% 30.05 in 10.0 mi West 4.6 mph - N/A   Clear
11:15 AM 71.6 °F - 40.6 °F 33% 30.05 in 10.0 mi West 6.9 mph - N/A   Clear
11:35 AM 73.4 °F - 40.8 °F 31% 30.04 in 10.0 mi WSW 6.9 mph - N/A   Clear
11:55 AM 74.7 °F - 41.0 °F 30% 30.04 in 10.0 mi West 6.9 mph - N/A   Clear
12:15 PM 76.1 °F - 41.2 °F 29% 30.04 in 10.0 mi West 5.8 mph - N/A   Clear
12:35 PM 77.9 °F - 41.9 °F 28% 30.03 in 10.0 mi West 4.6 mph - N/A   Clear
12:55 PM 78.8 °F - 41.0 °F 26% 30.03 in 10.0 mi West 6.9 mph - N/A   Clear
1:35 PM 80.8 °F - 40.1 °F 23% 30.01 in 10.0 mi West 4.6 mph - N/A   Clear
1:55 PM 81.5 °F - 38.7 °F 22% 30.00 in 10.0 mi NNE 3.5 mph - N/A   Clear
2:15 PM 82.0 °F - 39.0 °F 22% 29.99 in 10.0 mi WNW 5.8 mph - N/A   Clear
2:35 PM 83.1 °F - 38.8 °F 21% 29.98 in 10.0 mi WSW 5.8 mph - N/A   Clear
2:55 PM 82.9 °F - 38.3 °F 20% 29.98 in 10.0 mi WSW 5.8 mph - N/A   Clear
3:15 PM 83.8 °F - 36.7 °F 19% 29.97 in 10.0 mi WSW 5.8 mph - N/A   Clear
3:35 PM 84.6 °F - 35.8 °F 18% 29.97 in 10.0 mi West 5.8 mph - N/A   Clear
3:55 PM 84.7 °F - 35.1 °F 17% 29.96 in 10.0 mi West 5.8 mph 9.2 mph N/A   Clear
4:15 PM 84.4 °F - 34.5 °F 17% 29.96 in 10.0 mi Calm Calm - N/A   Clear
4:35 PM 83.8 °F - 33.6 °F 16% 29.96 in 10.0 mi SW 5.8 mph - N/A   Clear
4:55 PM 84.9 °F - 34.0 °F 16% 29.96 in 10.0 mi West 8.1 mph - N/A   Clear
5:15 PM 84.0 °F - 33.8 °F 16% 29.96 in 10.0 mi WSW 6.9 mph - N/A   Clear
5:35 PM 83.3 °F - 33.3 °F 17% 29.96 in 10.0 mi WNW 4.6 mph - N/A   Clear
5:55 PM 83.5 °F - 33.8 °F 17% 29.96 in 10.0 mi WSW 6.9 mph - N/A   Clear
6:15 PM 80.2 °F - 35.1 °F 20% 29.96 in 10.0 mi SW 4.6 mph - N/A   Clear
6:35 PM 79.5 °F - 36.9 °F 22% 29.96 in 10.0 mi WSW 5.8 mph - N/A   Clear
6:55 PM 77.2 °F - 37.0 °F 23% 29.97 in 10.0 mi WSW 4.6 mph - N/A   Clear
7:15 PM 76.5 °F - 37.4 °F 24% 29.97 in 10.0 mi West 3.5 mph - N/A   Clear
7:35 PM 74.1 °F - 38.7 °F 28% 29.98 in 10.0 mi WSW 4.6 mph - N/A   Clear
7:55 PM 71.6 °F - 40.3 °F 32% 29.98 in 10.0 mi SW 5.8 mph - N/A   Clear
8:15 PM 71.8 °F - 40.1 °F 32% 29.98 in 10.0 mi SW 4.6 mph - N/A   Clear
8:35 PM 70.9 °F - 39.7 °F 32% 29.99 in 10.0 mi SW 5.8 mph - N/A   Clear
8:55 PM 70.3 °F - 39.2 °F 32% 29.99 in 10.0 mi SW 5.8 mph - N/A   Clear
9:15 PM 68.9 °F - 39.9 °F 35% 30.00 in 10.0 mi SW 6.9 mph - N/A   Clear
9:35 PM 70.9 °F - 39.6 °F 32% 30.00 in 10.0 mi SSW 9.2 mph 17.3 mph N/A   Clear
9:55 PM 70.3 °F - 40.3 °F 34% 30.01 in 10.0 mi SSW 6.9 mph - N/A   Clear
10:15 PM 69.4 °F - 40.8 °F 35% 30.01 in 10.0 mi SSW 6.9 mph - N/A   Clear
10:35 PM 68.5 °F - 41.9 °F 38% 30.01 in 10.0 mi SSW 6.9 mph - N/A   Clear
10:55 PM 68.0 °F - 42.3 °F 39% 30.02 in 10.0 mi SSW 8.1 mph - N/A   Clear
11:15 PM 68.0 °F - 42.8 °F 40% 30.02 in 10.0 mi SSW 8.1 mph - N/A   Clear
11:35 PM 67.5 °F - 42.8 °F 41% 30.02 in 10.0 mi SSW 8.1 mph - N/A   Clear
11:55 PM 66.9 °F - 43.2 °F 42% 30.02 in 10.0 mi SSW 8.1 mph - N/A   Clear